Location: Izdebno
(52.6670°N, 16.2170°E)
Time: 19:12:02
(UTC+02:00)

SR - Pass Details

Date: 02 March 2024
Orbit: 577 x 862 km, 66.7° (Epoch: 21 April)

Event Time Altitude Azimuth Distance (km) Brightness Sun altitude
Rises 12:34:45 0° 171° (S) 3,435 ? 30.1°
Reaches altitude 10° 12:37:48 10° 156° (SSE) 2,494 ? 30.1°
Maximum altitude 12:42:00 21° 109° (ESE) 1,814 ? 30.0°
Drops below altitude 10° 12:46:07 10° 62° (ENE) 2,433 ? 29.9°
Sets 12:49:03 0° 47° (NE) 3,328 ? 29.8°
